Regional Weather Roundup
Issued by NWS

Home | Current Version | Previous Version | Graphics & Text | Print | Product List | Glossary On
Versions: 1 2 3 4 5 6 7 8 9 10 11 12 13 14 15 16 17 18 19 20 21 22 23 24 25 26 27 28 29 30 31 32 33 34 35 36 37 38 39 40 41 42 43 44 45 46 47 48 49 50
158
ASUS44 KJAN 250903
RWRMS

MISSISSIPPI HOURLY WEATHER ROUNDUP
NATIONAL WEATHER SERVICE JACKSON MS
300 AM CST SUN JAN 25 2015

NOTE: "FAIR: INDICATES FEW OR NO CLOUDS BELOW 12,000 FEET WITH NO
SIGNIFICANT WEATHER AND/OR OBSTRUCTIONS TO VISIBILITY.

MSZ001>002-007>008-010>013-018>021-025>028-034>036-251000-
NORTHWEST MISSISSIPPI

CITY           SKY/WX    TMP DP  RH WIND       PRES   REMARKS
CLARKSDALE     FAIR      39  34  81 S7        29.90F WCI  34
CLEVELAND      FAIR      38  36  90 S7        29.92S WCI  33
GREENWOOD      CLEAR     39  34  82 SW8       29.94F WCI  33
GREENVILLE     CLEAR     41  35  79 SW10      29.92F
GRENADA        FAIR      30  30 100 CALM      29.93F
OLIVE BRANCH   CLEAR     34  34 100 S9        29.86F WCI  26
OXFORD         FAIR      37  32  81 S3        29.91F
TUNICA         SUNNY     36  32  87 S8        29.88F WCI  29
$$

MSZ003>006-009-014>017-022>024-029>033-037>039-251000-
NORTHEAST MISSISSIPPI

CITY           SKY/WX    TMP DP  RH WIND       PRES   REMARKS
COLUMBUS AFB   CLEAR     29  27  91 SE5       29.95F WCI  24
CORINTH        FAIR      34  30  86 SE6       29.88F WCI  29
GOLDN TRIANGLE CLEAR     34  28  80 S7        29.94F WCI  28
STARKVILLE     FAIR      32  32 100 CALM      29.95F
TUPELO         CLEAR     35  30  82 MISG      29.91F
$$

MSZ040-058-251000-
CENTRAL MISSISSIPPI

CITY           SKY/WX    TMP DP  RH WIND       PRES   REMARKS
JACKSON INTL   CLEAR     39  34  82 S7        29.99S WCI  34
JACKSON HAWKNS CLEAR     37  33  85 S5        29.99F WCI  33
MERIDIAN KEY   CLEAR     31  29  92 S6        30.01R WCI  25
MERIDIAN NAS   CLEAR     39  32  76 SW3       30.00R
RAYMOND        FAIR      39  36  87 SW6       29.99F WCI  35
VICKSBURG      CLEAR     42  36  79 VRB5      30.00F
$$

MSZ059>079-251000-
SOUTH MISSISSIPPI

CITY           SKY/WX    TMP DP  RH WIND       PRES   REMARKS
BROOKHAVEN       N/A     37  37 100 S5        30.03F WCI  34
HATTIESBURG    CLEAR     39  34  82 S5        30.05S
MCCOMB         CLEAR     39  35  86 CALM      30.02F
NATCHEZ        CLEAR     45  37  76 SW6       30.01F
PINE BELT      CLEAR     39  34  81 SW3       30.04R
$$

MSZ080>082-251000-
COASTAL MISSISSIPPI

CITY           SKY/WX    TMP DP  RH WIND       PRES   REMARKS
BILOXI         CLEAR     45  40  83 W5        30.06F
PASCAGOULA     CLEAR     42  39  89 CALM      30.06F
GULFPORT       CLEAR     42  39  89 CALM      30.06F
$$



USA.gov is the U.S. government's official web portal to all federal, state and local government web resources and services.